Погода в Пролетарии

Россия / Новгородская область     58°26′14″N   31°42′29″E
темп.,
°C
ветер,
м/с
пор.,
м/с
влажн.,
%
обл.,
%
осадки,
мм/ч
давл.,
гПа
погр.,
м
13 августа, сб
сб1300:00+16з128125 0.0 102312
03:00+16зюз118597 0.0 102312
06:00+15юз228734 0.0 102332
09:00+20юз236599 0.0 1023375
12:00+24юз33525 0.0 1023844
15:00+26юз22435 0.0 10211274
18:00+26ююз21485 0.0 1021593
21:00+19зюз016834 0.0 102111
14 августа, вс
вс1400:00+17св22805 0.0 102118
03:00+16всв11895 0.0 102112
06:00+15всв119021 0.0 102115
09:00+22всв116261 0.0 1021338
12:00+27юв114516 0.0 10201277
15:00+28юз11395 0.0 10191806
18:00+27з214512 0.0 1019479
21:00+21с22705 0.0 101919
15 августа, пн
пн1500:00+19всв23755 0.0 101946
03:00+17юв11835 0.0 101912
06:00+17юв22799 0.0 102037
09:00+23юв24565 0.0 1020344
12:00+28юв344127 0.0 10201518
15:00+30ююв233436 0.0 10192094
18:00+29ююв134215 0.0 10181428
21:00+22вюв35615 0.0 101973
16 августа, вт
вт1600:00+19юв386519 0.0 1019140
03:00+18юв287217 0.0 1020146
06:00+17вюв24805 0.0 102081
09:00+24юв35577 0.0 1020343
12:00+29юв36405 0.0 10191328
15:00+31ююв453278 0.0 10182442
18:00+30ююв354047 0.1 10181050
21:00+23юв396216 0.1 1018219
17 августа, ср
ср1700:00+20ююв39705 0.0 1019185
03:00+19ю247965 0.0 102080
06:00+18юв258068 0.0 102099
09:00+23юв355123 0.0 1020357
12:00+28юв353213 0.0 10191406
15:00+30юв342836 0.0 10182071
18:00+28вюв253994 0.0 1017319
21:00+22вюв386293 0.0 1017134